SCP
-0 -0 -0 -0 -0 -0 -0 -0 -0 -0 -0 -0 -0 -0 -0 -0 -0 -0 -0 -0 -0 -0 -0 -0 0 0 0 0 0 0 0 0 0 0 0 -0 0 -0 -0 0 0 0 -0 -0 -0 0 -0
-0 -0 -0 -0 -0 -0 -0 -0 -0 -0 -0 -0 -0 0 0 0 -0 -0 -0 -0 -0 0 -0 -0 -0 0 0 0 0 0 0 0 -0 0 -0 -0 0 0 -0 0 -0 -0 -0 0 -0 0 0
-0 -0 -0 -0 -0 -0 -0 -0 -0 -0 -0 -0 -0 -0 0 -0 -0 -0 -0 -0 0 0 -0 -0 -0 -0 -0 -0 0 0 0 0 0 0 0 0 0 0 0 -0 0 -0 -0 -0 -0 0 -0
0 -0 -0 -0 -0 -0 -0 -0 -0 -0 -0 -0 -0 0 0 -0 -0 -0 -0 -0 0 0 0 0 -0 -0 -0 -0 -0 0 0 0 0 0 0 0 0 0 -0 0 0 -0 -0 -0 -0 0 -0
0 0 -0 -0 -0 -0 -0 -0 -0 -0 -0 -0 -0 -0 -0 -0 -0 -0 -0 -0 0 0 0 0 0 -0 -0 -0 0 0 0 0 0 0 0 0 0 0 0 0 0 0 0 -0 -0 0 0
0 0 0 -0 -0 -0 -0 -0 -0 -0 -0 -0 -0 -0 -0 0 0 -0 -0 -0 0 0 0 0 0 -0 -0 -0 -0 0 0 0 0 0 0 0 0 0 0 -0 -0 0 0 0 0 0 0
0 0 0 0 -0 -0 -0 -0 -0 -0 -0 -0 -0 -0 -0 0 0 -0 -0 0 0 -0 0 0 0 0 0 -0 -0 -0 0 0 0 0 0 0 0 0 -0 -0 0 0 0 0 0 -0 -0
0 0 0 0 -0 0 0 0 -0 -0 -0 -0 -0 -0 -0 0 0 -0 -0 0 -0 -0 -0 0 0 0 0 -0 -0 -0 -0 0 0 0 0 0 -0 0 -0 0 0 0 0 0 -0 -0 -0
0 0 -0 -0 -0 0 0 0 -0 -0 -0 -0 -0 -0 -0 0 0 -0 0 0 0 -0 -0 -0 -0 -0 -0 -0 -0 -0 0 -0 0 0 0 -0 -0 0 -0 0 0 0 0 0 0 0 0
-0 -0 -0 -0 -0 0 0 -0 -0 -0 -0 -0 -0 -0 -0 -0 -0 -0 0 -0 0 0 -0 0 -0 0 -0 -0 0 -0 -0 0 0 -0 -0 0 0 0 -0 0 0 0 0 0 0 0 0
-0 -0 -0 -0 -0 0 -0 -0 -0 -0 -0 -0 -0 0 0 -0 -0 0 -0 0 0 0 0 -0 -0 -0 0 0 0 -0 0 0 0 0 -0 0 0 0 0 0 0 -0 0 -0 0 0 0
-0 -0 -0 -0 -0 -0 0 -0 -0 -0 -0 -0 0 0 -0 0 -0 -0 -0 0 0 -0 0 -0 -0 -0 0 0 -0 -0 -0 -0 -0 0 0 -0 0 0 0 0 0 0 0 0 0 0 0
-0 -0 -0 -0 -0 -0 0 0 -0 -0 -0 -0 -0 0 0 0 0 -0 -0 -0 0 0 0 -0 0 0 0 -0 -0 -0 -0 -0 0 -0 0 -0 -0 -0 -0 -0 0 0 0 0 0 0 0
-0 -0 -0 -0 -0 -0 0 0 0 -0 -0 -0 -0 0 0 0 0 -0 -0 -0 0 0 -0 0 -0 -0 -0 -0 -0 -0 -0 0 0 0 0 0 -0 0 -0 0 0 0 0 0 0 0 0
0 0 0 0 -0 0 0 0 0 0 -0 -0 0 0 0 0 0 -0 -0 0 0 0 0 0 0 0 0 -0 -0 -0 -0 -0 -0 -0 0 0 0 -0 -0 -0 0 0 0 0 0 0 0
0 0 0 0 0 0 0 0 0 0 0 0 0 0 0 0 0 0 0 0 0 0 0 0 0 0 0 0 0 0 -0 0 0 0 -0 0 0 0 -0 0 0 0 0 0 0 0 0
0 0 0 0 0 0 0 0 0 0 0 0 0 0 0 0 0 0 0 -0 -0 0 0 0 0 0 0 0 0 0 0 0 0 0 0 0 0 0 0 0 0 0 0 0 0 0 0
0 0 0 0 0 0 0 0 0 0 0 -0 0 0 0 0 0 0 0 -0 -0 -0 0 -0 0 0 0 0 0 0 0 0 0 0 0 0 0 0 0 0 0 0 0 0 0 0 0
0 0 0 0 0 0 0 0 0 0 -0 0 0 0 0 0 0 0 0 0 -0 0 0 0 0 0 0 0 0 0 0 0 0 0 0 0 0 0 0 0 0 0 0 0 0 0 0
0 0 0 0 0 0 0 0 0 0 0 0 0 0 0 0 0 0 0 0 0 0 0 0 0 0 0 0 0 0 0 0 0 0 0 0 0 0 0 0 0 0 0 0 0 0 0
0 0 0 0 0 0 0 0 0 0 0 0 0 0 0 0 0 0 0 0 0 0 0 0 0 0 0 0 0 0 0 0 0 0 0 0 0 0 0 0 0 0 0 0 0 0 0
0 0 0 0 0 0 0 0 0 0 0 0 0 0 0 0 0 0 0 0 0 0 0 0 0 0 0 0 0 0 0 0 0 0 0 0 0 0 0 0 0 0 0 0 0 0 0
0 0 0 0 0 0 0 0 0 0 0 0 0 0 0 0 0 0 0 0 0 0 0 0 0 0 0 0 0 0 0 0 0 0 0 0 0 0 0 0 0 0 0 0 0 0 0
0 0 0 0 0 0 0 0 0 0 0 0 0 0 0 0 0 0 0 0 0 0 0 0 0 0 -0 0 0 0 0 0 0 0 0 0 0 0 0 0 0 0 0 0 0 0 0
0 0 0 0 0 0 0 0 0 0 0 0 0 0 0 0 0 0 0 0 0 0 0 0 0 0 0 0 0 0 0 0 0 0 0 0 0 0 0 0 0 0 0 0 0 0 0
0 0 0 0 0 0 0 0 0 0 0 0 0 0 0 0 0 0 0 0 0 0 0 0 0 0 0 0 0 0 0 0 0 0 0 0 0 0 0 0 0 0 0 0 0 0 0
0 0 0 0 0 0 0 0 0 0 0 0 0 0 0 0 0 0 0 0 0 0 0 0 0 0 0 0 0 0 0 0 0 0 0 0 0 0 0 0 0 0 0 0 0 -0 0
0 0 0 0 0 0 0 0 0 0 0 0 0 0 0 0 0 0 0 0 0 0 0 0 0 0 0 0 0 0 0 0 0 0 0 0 0 0 0 0 0 0 0 -0 -0 -0 0
0 0 0 0 0 0 0 0 0 0 0 0 0 0 0 0 0 0 0 0 0 0 0 0 0 0 0 0 0 0 0 0 0 0 0 0 0 0 0 -0 0 0 0 -0 -0 -0 -0
Wind_Speed_500mb
43 43 44 44 44 42 40 37 33 30 27 26 24 22 20 18 18 21 24 27 27 22 19 14 8 4 2 3 5 6 13 2 17 14 13 11 6 2 6 5 8 8 9 11 29 22 6
44 45 45 45 45 45 44 41 39 35 32 28 25 23 21 19 19 21 25 28 26 19 15 12 7 3 4 1 7 5 15 3 14 17 16 13 4 10 15 7 6 14 21 20 20 21 8
48 47 45 45 44 46 46 45 42 39 34 31 27 25 22 21 19 20 24 25 23 16 11 8 5 2 8 5 2 1 8 7 11 13 15 5 11 10 17 11 16 32 12 10 13 15 6
52 52 50 47 45 46 47 46 44 42 39 33 30 27 24 22 19 18 22 22 20 15 9 7 6 7 9 6 9 6 4 15 16 12 7 6 15 2 15 33 12 2 6 5 8 16 8
53 53 53 52 50 49 49 48 47 45 42 37 32 28 25 22 18 15 18 19 17 13 10 7 8 12 10 6 8 11 10 10 6 3 3 4 6 13 20 9 6 6 3 8 6 24 5
51 52 53 53 53 52 51 50 49 48 45 41 35 31 27 22 16 10 14 22 17 14 12 15 15 12 1 7 16 11 9 5 4 5 4 5 9 8 8 3 6 8 6 8 8 17 11
49 50 52 53 53 53 53 53 52 50 48 45 39 32 25 21 13 5 8 16 17 5 25 24 29 26 35 6 16 13 11 11 11 8 6 4 9 12 19 17 10 8 7 6 4 14 11
47 49 50 51 52 54 54 54 53 53 51 49 44 35 25 19 9 6 8 15 21 19 20 33 22 29 16 15 7 16 17 9 7 6 5 10 7 18 15 10 13 10 7 5 2 18 11
47 49 50 52 53 54 55 56 55 54 53 50 47 37 26 17 7 15 9 19 26 33 4 21 10 15 11 31 14 21 26 11 6 5 6 10 14 7 14 11 9 8 13 8 7 9 6
46 49 50 52 54 55 56 57 57 56 56 54 49 38 26 12 6 14 3 14 26 12 9 12 5 7 17 18 10 24 31 12 4 12 11 11 11 11 9 11 19 10 24 14 12 10 5
44 48 51 53 55 57 58 59 58 56 56 56 53 40 24 7 7 12 8 15 15 5 6 4 7 4 10 14 7 9 31 20 9 7 8 13 7 8 9 14 18 21 17 25 9 8 3
44 48 51 54 56 58 60 61 61 59 58 55 52 41 23 11 20 10 9 8 6 10 7 4 12 9 8 10 9 10 19 20 2 2 3 14 11 8 13 6 12 10 15 15 12 6 4
44 47 50 52 54 57 60 62 63 61 59 57 52 38 22 14 15 15 7 4 9 6 9 8 12 8 9 8 5 11 9 7 9 6 8 11 8 8 8 2 7 13 12 7 6 3 11
44 46 48 51 53 56 60 62 63 61 61 59 51 33 22 13 20 15 2 9 5 6 12 10 8 5 12 12 11 12 6 4 7 8 4 3 14 4 4 17 14 10 15 11 12 9 9
45 45 47 49 51 55 60 63 64 62 60 61 51 30 17 11 30 18 8 5 11 11 6 12 4 6 7 10 12 8 12 7 12 15 13 7 10 9 6 6 16 6 7 8 13 6 6
48 47 46 46 49 53 57 61 63 63 60 58 52 31 2 13 31 18 8 10 9 8 10 8 1 1 3 4 6 10 13 6 5 17 9 7 5 5 12 5 12 9 8 6 7 5 4
48 47 46 46 47 49 54 58 60 62 60 52 38 11 3 16 32 8 6 13 11 14 22 8 6 5 3 3 6 4 4 4 3 7 12 8 5 12 9 12 6 10 7 13 10 6 9
46 45 44 45 45 45 49 54 55 59 58 48 21 7 5 27 5 2 5 10 7 10 33 14 8 9 5 3 4 4 9 11 12 11 7 4 10 8 3 5 11 10 6 7 9 6 2
49 47 47 44 46 46 45 47 47 48 52 55 39 14 9 29 3 5 9 8 9 9 6 6 8 9 5 7 7 5 9 7 17 8 12 9 5 7 12 14 8 10 1 7 9 6 9
44 46 45 41 45 42 39 39 39 40 39 40 16 7 6 17 3 6 8 8 9 12 13 11 10 9 6 5 3 4 4 1 7 13 17 16 6 11 12 10 7 4 6 0 8 7 8
45 45 42 38 34 38 38 38 35 34 31 28 6 5 7 8 6 7 4 6 9 12 7 12 13 11 13 6 1 3 2 3 9 20 9 9 8 7 8 7 7 7 7 11 10 9 11
44 43 39 34 33 36 39 29 29 29 27 13 8 8 13 16 18 9 3 3 6 10 7 8 9 19 8 14 14 8 11 5 7 2 6 5 5 3 3 5 4 7 9 12 10 5 11
43 41 36 29 27 31 30 22 28 24 19 7 7 9 6 12 9 4 4 5 12 12 18 27 14 10 12 15 30 31 20 22 16 14 7 8 13 7 8 5 11 10 10 9 5 9 11
43 39 29 21 25 28 25 21 29 21 14 10 11 10 3 8 4 5 14 20 15 15 11 41 40 11 16 22 28 19 13 6 14 3 14 11 10 5 5 5 4 11 8 10 13 10 10
40 35 26 24 28 29 27 25 25 22 14 13 11 6 5 6 9 19 11 10 28 32 14 19 28 25 42 27 9 10 10 9 12 12 6 5 11 6 9 7 9 4 7 8 9 13 17
38 31 26 23 29 28 28 26 23 22 17 15 15 13 10 5 11 16 4 19 8 7 12 15 21 21 4 8 7 8 8 7 1 3 10 11 14 9 5 7 12 13 8 17 12 13 15
29 28 23 25 27 30 31 29 24 20 16 12 9 14 14 10 28 24 9 8 11 5 6 15 27 13 4 5 6 7 8 11 7 13 9 7 7 8 3 4 11 11 9 15 7 13 29
24 23 21 26 29 26 32 26 20 16 13 10 9 16 14 14 48 59 54 35 26 15 4 16 22 6 7 7 7 7 6 9 5 7 10 12 11 5 5 3 13 14 5 13 9 4 34
21 20 22 23 23 27 22 17 15 14 15 11 11 16 21 30 40 46 71 76 72 62 28 9 11 12 6 7 3 6 4 4 9 6 3 3 12 10 13 12 12 12 7 8 19 4 22
Wind_Direction_500mb
34 32 30 28 26 25 23 20 14 10 7 1 355 353 347 339 339 343 346 347 345 345 347 351 2 37 112 177 75 46 6 244 196 188 183 155 77 67 142 126 111 91 152 160 149 167 218
33 31 29 27 25 23 21 19 14 9 5 360 354 349 341 335 334 337 341 345 347 346 344 353 14 65 171 202 73 51 6 216 195 179 177 167 36 340 103 114 13 132 137 141 175 199 252
34 31 27 26 25 23 21 18 14 9 4 357 354 347 339 334 331 334 340 347 349 345 343 351 20 4 224 129 88 348 22 99 147 166 147 134 328 347 149 106 110 135 106 164 166 171 224
35 33 31 28 26 22 20 17 13 9 4 359 353 347 339 335 332 336 340 349 354 359 9 20 29 338 245 222 224 236 123 118 121 133 141 97 352 354 136 120 90 290 65 126 210 177 205
33 32 31 29 26 22 19 16 13 9 3 359 353 345 339 335 330 339 338 347 347 3 6 347 324 339 287 271 239 196 177 140 128 190 172 296 355 114 124 92 71 8 198 176 186 195 126
29 28 26 25 23 21 19 15 12 8 3 358 352 344 338 332 331 340 339 337 329 304 298 309 289 317 300 3 137 150 156 171 224 206 206 165 110 105 32 122 234 178 211 231 187 194 175
22 22 20 19 17 16 14 13 10 6 2 356 351 344 337 328 326 321 339 342 353 333 309 264 275 268 299 261 169 166 181 199 179 145 125 38 91 193 193 211 234 165 193 194 139 171 166
16 15 14 11 10 9 9 7 6 3 359 356 349 344 336 322 306 229 312 16 26 332 306 301 284 271 268 202 252 204 203 176 135 178 107 22 232 223 190 203 245 224 234 248 182 170 168
9 9 7 6 4 2 2 2 0 359 356 354 348 339 333 313 261 211 272 28 345 348 275 297 281 273 247 214 227 187 196 184 144 146 165 162 235 127 176 179 181 218 215 176 183 163 215
3 2 2 1 360 359 357 357 357 355 351 351 346 336 331 311 217 207 144 327 335 338 56 281 270 252 209 201 235 215 199 172 124 192 182 221 254 216 223 204 193 206 211 206 159 131 229
354 355 355 354 353 353 352 351 351 352 348 348 346 333 325 264 215 191 268 323 343 3 35 165 217 211 202 182 159 189 208 221 177 217 97 257 276 179 189 223 157 227 171 200 119 93 331
347 348 349 350 349 348 347 346 346 347 345 343 346 329 316 277 218 202 297 303 333 40 271 298 174 197 141 211 195 130 179 226 209 172 233 240 251 210 208 157 175 85 80 47 53 69 346
340 342 344 345 345 345 344 343 342 343 342 339 342 325 305 269 206 207 311 342 42 145 341 237 211 168 186 189 217 163 189 197 171 106 345 322 272 290 203 17 67 74 70 27 13 28 227
331 334 337 340 342 342 342 341 340 341 340 336 339 326 298 260 201 200 296 54 189 247 256 294 144 122 177 162 222 176 152 237 222 86 103 76 331 284 273 187 166 171 152 154 184 189 235
323 326 330 334 336 339 340 340 339 339 341 336 338 329 303 206 186 191 156 98 219 212 272 325 336 160 233 202 175 116 196 228 202 170 162 146 277 305 225 165 125 198 186 180 105 5 75
313 318 322 326 331 335 338 339 338 338 341 340 338 333 300 194 180 172 86 222 243 220 337 327 139 204 3 282 135 136 182 227 160 191 173 191 310 342 297 24 30 112 150 49 9 144 251
306 310 314 319 324 330 335 338 337 336 341 345 339 345 127 157 178 182 176 227 270 273 23 344 302 192 225 121 116 197 127 351 126 69 119 132 115 309 36 2 284 18 23 56 110 106 159
298 302 305 311 315 322 329 334 337 336 342 347 358 344 149 167 115 82 188 208 281 305 326 256 236 225 184 127 82 111 177 173 160 153 84 334 123 78 105 322 18 87 100 108 117 226 58
303 301 302 307 310 318 323 329 334 338 345 351 335 298 179 184 186 264 297 294 268 297 295 315 250 246 176 158 120 190 219 231 156 112 159 188 34 88 352 333 353 60 58 116 104 72 197
302 297 296 298 303 310 317 326 330 335 342 344 330 348 322 210 173 113 3 285 308 294 279 259 260 207 127 136 330 169 255 21 155 121 132 98 101 150 184 204 162 194 237 134 127 129 183
303 302 301 299 303 310 314 319 325 333 339 343 316 305 357 314 343 335 243 288 313 343 275 342 325 245 155 164 178 191 57 74 44 139 73 99 142 171 204 191 185 225 196 197 189 201 175
303 301 299 295 293 299 308 307 316 330 339 339 326 354 344 297 296 308 230 61 22 330 281 281 202 279 207 155 178 181 144 128 177 149 99 23 166 103 164 294 54 274 259 204 222 208 256
304 301 294 290 292 293 301 307 321 323 338 328 307 302 282 290 321 359 255 4 318 344 280 260 293 303 175 225 194 183 189 160 170 155 143 122 135 118 247 16 337 324 264 204 221 205 185
303 299 292 287 281 288 289 300 321 325 327 321 310 315 284 272 277 273 329 320 300 304 256 286 294 185 247 192 139 119 88 94 120 116 151 131 101 90 181 30 241 238 263 237 217 234 211
297 294 272 259 275 285 291 297 309 307 319 312 302 281 242 267 275 296 288 300 312 307 268 265 293 285 172 136 67 47 351 16 19 40 27 96 126 102 144 187 274 279 211 165 179 277 188
295 296 265 249 264 277 289 298 293 291 293 300 294 266 225 280 247 247 315 290 281 301 305 273 309 152 332 89 87 133 188 201 267 99 107 74 77 106 132 166 204 233 303 202 133 284 171
299 286 268 250 261 272 284 288 279 277 270 278 279 237 241 251 278 274 229 265 298 331 272 298 337 332 17 86 105 153 213 179 169 179 183 34 18 115 142 196 285 240 282 156 109 248 176
293 280 274 261 258 268 279 278 268 271 288 307 253 238 243 253 268 272 265 260 263 259 260 321 333 290 6 79 119 194 151 211 121 190 182 156 126 177 90 88 275 162 141 164 207 279 189
281 283 266 258 268 272 272 269 261 262 267 271 229 242 280 266 264 273 280 277 265 261 258 264 274 288 291 78 93 109 133 99 144 212 46 94 173 178 165 216 256 169 267 257 311 274 183
Wind_Speed_850mb
43 43 44 44 44 42 40 37 33 30 27 26 24 22 20 18 18 21 24 27 27 22 19 14 8 4 2 3 5 6 13 2 17 14 13 11 6 2 6 5 8 8 9 11 29 22 6
44 45 45 45 45 45 44 41 39 35 32 28 25 23 21 19 19 21 25 28 26 19 15 12 7 3 4 1 7 5 15 3 14 17 16 13 4 10 15 7 6 14 21 20 20 21 8
48 47 45 45 44 46 46 45 42 39 34 31 27 25 22 21 19 20 24 25 23 16 11 8 5 2 8 5 2 1 8 7 11 13 15 5 11 10 17 11 16 32 12 10 13 15 6
52 52 50 47 45 46 47 46 44 42 39 33 30 27 24 22 19 18 22 22 20 15 9 7 6 7 9 6 9 6 4 15 16 12 7 6 15 2 15 33 12 2 6 5 8 16 8
53 53 53 52 50 49 49 48 47 45 42 37 32 28 25 22 18 15 18 19 17 13 10 7 8 12 10 6 8 11 10 10 6 3 3 4 6 13 20 9 6 6 3 8 6 24 5
51 52 53 53 53 52 51 50 49 48 45 41 35 31 27 22 16 10 14 22 17 14 12 15 15 12 1 7 16 11 9 5 4 5 4 5 9 8 8 3 6 8 6 8 8 17 11
49 50 52 53 53 53 53 53 52 50 48 45 39 32 25 21 13 5 8 16 17 5 25 24 29 26 35 6 16 13 11 11 11 8 6 4 9 12 19 17 10 8 7 6 4 14 11
47 49 50 51 52 54 54 54 53 53 51 49 44 35 25 19 9 6 8 15 21 19 20 33 22 29 16 15 7 16 17 9 7 6 5 10 7 18 15 10 13 10 7 5 2 18 11
47 49 50 52 53 54 55 56 55 54 53 50 47 37 26 17 7 15 9 19 26 33 4 21 10 15 11 31 14 21 26 11 6 5 6 10 14 7 14 11 9 8 13 8 7 9 6
46 49 50 52 54 55 56 57 57 56 56 54 49 38 26 12 6 14 3 14 26 12 9 12 5 7 17 18 10 24 31 12 4 12 11 11 11 11 9 11 19 10 24 14 12 10 5
44 48 51 53 55 57 58 59 58 56 56 56 53 40 24 7 7 12 8 15 15 5 6 4 7 4 10 14 7 9 31 20 9 7 8 13 7 8 9 14 18 21 17 25 9 8 3
44 48 51 54 56 58 60 61 61 59 58 55 52 41 23 11 20 10 9 8 6 10 7 4 12 9 8 10 9 10 19 20 2 2 3 14 11 8 13 6 12 10 15 15 12 6 4
44 47 50 52 54 57 60 62 63 61 59 57 52 38 22 14 15 15 7 4 9 6 9 8 12 8 9 8 5 11 9 7 9 6 8 11 8 8 8 2 7 13 12 7 6 3 11
44 46 48 51 53 56 60 62 63 61 61 59 51 33 22 13 20 15 2 9 5 6 12 10 8 5 12 12 11 12 6 4 7 8 4 3 14 4 4 17 14 10 15 11 12 9 9
45 45 47 49 51 55 60 63 64 62 60 61 51 30 17 11 30 18 8 5 11 11 6 12 4 6 7 10 12 8 12 7 12 15 13 7 10 9 6 6 16 6 7 8 13 6 6
48 47 46 46 49 53 57 61 63 63 60 58 52 31 2 13 31 18 8 10 9 8 10 8 1 1 3 4 6 10 13 6 5 17 9 7 5 5 12 5 12 9 8 6 7 5 4
48 47 46 46 47 49 54 58 60 62 60 52 38 11 3 16 32 8 6 13 11 14 22 8 6 5 3 3 6 4 4 4 3 7 12 8 5 12 9 12 6 10 7 13 10 6 9
46 45 44 45 45 45 49 54 55 59 58 48 21 7 5 27 5 2 5 10 7 10 33 14 8 9 5 3 4 4 9 11 12 11 7 4 10 8 3 5 11 10 6 7 9 6 2
49 47 47 44 46 46 45 47 47 48 52 55 39 14 9 29 3 5 9 8 9 9 6 6 8 9 5 7 7 5 9 7 17 8 12 9 5 7 12 14 8 10 1 7 9 6 9
44 46 45 41 45 42 39 39 39 40 39 40 16 7 6 17 3 6 8 8 9 12 13 11 10 9 6 5 3 4 4 1 7 13 17 16 6 11 12 10 7 4 6 0 8 7 8
45 45 42 38 34 38 38 38 35 34 31 28 6 5 7 8 6 7 4 6 9 12 7 12 13 11 13 6 1 3 2 3 9 20 9 9 8 7 8 7 7 7 7 11 10 9 11
44 43 39 34 33 36 39 29 29 29 27 13 8 8 13 16 18 9 3 3 6 10 7 8 9 19 8 14 14 8 11 5 7 2 6 5 5 3 3 5 4 7 9 12 10 5 11
43 41 36 29 27 31 30 22 28 24 19 7 7 9 6 12 9 4 4 5 12 12 18 27 14 10 12 15 30 31 20 22 16 14 7 8 13 7 8 5 11 10 10 9 5 9 11
43 39 29 21 25 28 25 21 29 21 14 10 11 10 3 8 4 5 14 20 15 15 11 41 40 11 16 22 28 19 13 6 14 3 14 11 10 5 5 5 4 11 8 10 13 10 10
40 35 26 24 28 29 27 25 25 22 14 13 11 6 5 6 9 19 11 10 28 32 14 19 28 25 42 27 9 10 10 9 12 12 6 5 11 6 9 7 9 4 7 8 9 13 17
38 31 26 23 29 28 28 26 23 22 17 15 15 13 10 5 11 16 4 19 8 7 12 15 21 21 4 8 7 8 8 7 1 3 10 11 14 9 5 7 12 13 8 17 12 13 15
29 28 23 25 27 30 31 29 24 20 16 12 9 14 14 10 28 24 9 8 11 5 6 15 27 13 4 5 6 7 8 11 7 13 9 7 7 8 3 4 11 11 9 15 7 13 29
24 23 21 26 29 26 32 26 20 16 13 10 9 16 14 14 48 59 54 35 26 15 4 16 22 6 7 7 7 7 6 9 5 7 10 12 11 5 5 3 13 14 5 13 9 4 34
21 20 22 23 23 27 22 17 15 14 15 11 11 16 21 30 40 46 71 76 72 62 28 9 11 12 6 7 3 6 4 4 9 6 3 3 12 10 13 12 12 12 7 8 19 4 22
Wind_Direction_850mb
34 32 30 28 26 25 23 20 14 10 7 1 355 353 347 339 339 343 346 347 345 345 347 351 2 37 112 177 75 46 6 244 196 188 183 155 77 67 142 126 111 91 152 160 149 167 218
33 31 29 27 25 23 21 19 14 9 5 360 354 349 341 335 334 337 341 345 347 346 344 353 14 65 171 202 73 51 6 216 195 179 177 167 36 340 103 114 13 132 137 141 175 199 252
34 31 27 26 25 23 21 18 14 9 4 357 354 347 339 334 331 334 340 347 349 345 343 351 20 4 224 129 88 348 22 99 147 166 147 134 328 347 149 106 110 135 106 164 166 171 224
35 33 31 28 26 22 20 17 13 9 4 359 353 347 339 335 332 336 340 349 354 359 9 20 29 338 245 222 224 236 123 118 121 133 141 97 352 354 136 120 90 290 65 126 210 177 205
33 32 31 29 26 22 19 16 13 9 3 359 353 345 339 335 330 339 338 347 347 3 6 347 324 339 287 271 239 196 177 140 128 190 172 296 355 114 124 92 71 8 198 176 186 195 126
29 28 26 25 23 21 19 15 12 8 3 358 352 344 338 332 331 340 339 337 329 304 298 309 289 317 300 3 137 150 156 171 224 206 206 165 110 105 32 122 234 178 211 231 187 194 175
22 22 20 19 17 16 14 13 10 6 2 356 351 344 337 328 326 321 339 342 353 333 309 264 275 268 299 261 169 166 181 199 179 145 125 38 91 193 193 211 234 165 193 194 139 171 166
16 15 14 11 10 9 9 7 6 3 359 356 349 344 336 322 306 229 312 16 26 332 306 301 284 271 268 202 252 204 203 176 135 178 107 22 232 223 190 203 245 224 234 248 182 170 168
9 9 7 6 4 2 2 2 0 359 356 354 348 339 333 313 261 211 272 28 345 348 275 297 281 273 247 214 227 187 196 184 144 146 165 162 235 127 176 179 181 218 215 176 183 163 215
3 2 2 1 360 359 357 357 357 355 351 351 346 336 331 311 217 207 144 327 335 338 56 281 270 252 209 201 235 215 199 172 124 192 182 221 254 216 223 204 193 206 211 206 159 131 229
354 355 355 354 353 353 352 351 351 352 348 348 346 333 325 264 215 191 268 323 343 3 35 165 217 211 202 182 159 189 208 221 177 217 97 257 276 179 189 223 157 227 171 200 119 93 331
347 348 349 350 349 348 347 346 346 347 345 343 346 329 316 277 218 202 297 303 333 40 271 298 174 197 141 211 195 130 179 226 209 172 233 240 251 210 208 157 175 85 80 47 53 69 346
340 342 344 345 345 345 344 343 342 343 342 339 342 325 305 269 206 207 311 342 42 145 341 237 211 168 186 189 217 163 189 197 171 106 345 322 272 290 203 17 67 74 70 27 13 28 227
331 334 337 340 342 342 342 341 340 341 340 336 339 326 298 260 201 200 296 54 189 247 256 294 144 122 177 162 222 176 152 237 222 86 103 76 331 284 273 187 166 171 152 154 184 189 235
323 326 330 334 336 339 340 340 339 339 341 336 338 329 303 206 186 191 156 98 219 212 272 325 336 160 233 202 175 116 196 228 202 170 162 146 277 305 225 165 125 198 186 180 105 5 75
313 318 322 326 331 335 338 339 338 338 341 340 338 333 300 194 180 172 86 222 243 220 337 327 139 204 3 282 135 136 182 227 160 191 173 191 310 342 297 24 30 112 150 49 9 144 251
306 310 314 319 324 330 335 338 337 336 341 345 339 345 127 157 178 182 176 227 270 273 23 344 302 192 225 121 116 197 127 351 126 69 119 132 115 309 36 2 284 18 23 56 110 106 159
298 302 305 311 315 322 329 334 337 336 342 347 358 344 149 167 115 82 188 208 281 305 326 256 236 225 184 127 82 111 177 173 160 153 84 334 123 78 105 322 18 87 100 108 117 226 58
303 301 302 307 310 318 323 329 334 338 345 351 335 298 179 184 186 264 297 294 268 297 295 315 250 246 176 158 120 190 219 231 156 112 159 188 34 88 352 333 353 60 58 116 104 72 197
302 297 296 298 303 310 317 326 330 335 342 344 330 348 322 210 173 113 3 285 308 294 279 259 260 207 127 136 330 169 255 21 155 121 132 98 101 150 184 204 162 194 237 134 127 129 183
303 302 301 299 303 310 314 319 325 333 339 343 316 305 357 314 343 335 243 288 313 343 275 342 325 245 155 164 178 191 57 74 44 139 73 99 142 171 204 191 185 225 196 197 189 201 175
303 301 299 295 293 299 308 307 316 330 339 339 326 354 344 297 296 308 230 61 22 330 281 281 202 279 207 155 178 181 144 128 177 149 99 23 166 103 164 294 54 274 259 204 222 208 256
304 301 294 290 292 293 301 307 321 323 338 328 307 302 282 290 321 359 255 4 318 344 280 260 293 303 175 225 194 183 189 160 170 155 143 122 135 118 247 16 337 324 264 204 221 205 185
303 299 292 287 281 288 289 300 321 325 327 321 310 315 284 272 277 273 329 320 300 304 256 286 294 185 247 192 139 119 88 94 120 116 151 131 101 90 181 30 241 238 263 237 217 234 211
297 294 272 259 275 285 291 297 309 307 319 312 302 281 242 267 275 296 288 300 312 307 268 265 293 285 172 136 67 47 351 16 19 40 27 96 126 102 144 187 274 279 211 165 179 277 188
295 296 265 249 264 277 289 298 293 291 293 300 294 266 225 280 247 247 315 290 281 301 305 273 309 152 332 89 87 133 188 201 267 99 107 74 77 106 132 166 204 233 303 202 133 284 171
299 286 268 250 261 272 284 288 279 277 270 278 279 237 241 251 278 274 229 265 298 331 272 298 337 332 17 86 105 153 213 179 169 179 183 34 18 115 142 196 285 240 282 156 109 248 176
293 280 274 261 258 268 279 278 268 271 288 307 253 238 243 253 268 272 265 260 263 259 260 321 333 290 6 79 119 194 151 211 121 190 182 156 126 177 90 88 275 162 141 164 207 279 189
281 283 266 258 268 272 272 269 261 262 267 271 229 242 280 266 264 273 280 277 265 261 258 264 274 288 291 78 93 109 133 99 144 212 46 94 173 178 165 216 256 169 267 257 311 274 183